sat.trackr.live / text

‹ back to catalog

STARLINK-33900

NORAD 63800 · 2025-091AB

PAYLOAD ACTIVE UNKNOWN

§ Identity

Operator
Country
US
Launch date
2025-05-02
Launch site
AFETR
Launch vehicle
Mass (kg)
RCS (m²)

Purposes: comms

External: N2YO · Heavens-Above · Gunter

§ Orbital elements

Epoch: 2026-05-24T22:20:20.776128Z

Period
94.26 min
Inclination
43.0039°
Eccentricity
0.0001899
Mean motion
15.27608877 rev/d
Perigee alt
481.7 km
Apogee alt
484.3 km
Semi-major
6,861.1 km
B*
7.2340e-4
RAAN
341.8353°
Arg perigee
260.4383°
Mean anomaly
99.6254°
Rev number
6,067

§ Raw data

STARLINK-339001 63800U 25091AB  26144.93079602  .00019715  00000+0  72340-3 0  99982 63800  43.0039 341.8353 0001899 260.4383  99.6254 15.27608877 60673

JSON: /api/v1/satellites/63800 · /tle

For live sub-satellite position, see the globe view (requires WebGL).

§ Visibility from observer

Set your observer location to see the next 7 days of passes ≥ 10°. The values pass through the URL so the page stays shareable.

No JS? Fill the form by hand. The geolocation button needs JavaScript.